カタログに戻る

STARLINK-36557

運用中通信VLEO
NORAD 67500·PAYLOAD·🇺🇸 United States

打ち上げ Jan 18, 2026 から Cape Canaveral Space Force Station

Loading…

次のパス (今後24時間)

TLE

最新Source: CelesTrak SupGP

元期: Sep 15, 2026, 03:29 UTC

1 67500C 26012H   26258.14562500  .00040030  00000+0  14496-2 0  2585
2 67500  43.0012 324.4902 0001501 261.7096 193.8733 15.27565489    19

AllMySatでSTARLINK-36557をリアルタイム追跡

Download on the App Store